Wind_Speed
19 19 20 21 21 22 21 21 21 21 22 23 23 24 25 25 26 26 27 27 28 28 28 28 29 29 29 29 29 29 29 28 27 28 29 29 30 30 30 30 30 29 29
19 19 20 21 21 21 22 22 22 23 22 23 24 25 25 26 27 27 27 27 28 28 28 28 30 30 30 30 30 29 28 27 27 28 29 30 30 30 30 31 31 30 31
20 21 20 20 20 21 22 21 21 21 22 22 24 24 24 26 27 26 26 27 27 28 28 29 29 30 30 30 30 29 29 28 29 29 30 30 31 30 31 31 31 31 31
20 20 19 20 21 22 21 21 21 22 22 23 24 24 25 25 26 26 26 27 27 27 28 29 29 30 30 30 30 29 29 29 29 29 29 29 30 29 30 30 31 31 31
20 19 19 20 21 22 22 22 23 23 23 23 24 24 24 24 25 26 26 27 28 28 28 29 29 29 30 30 29 29 29 29 28 28 28 28 29 29 29 30 30 31 32
20 20 21 21 22 22 23 23 23 24 24 23 24 23 23 24 25 26 27 27 27 28 28 29 29 29 29 29 28 28 28 28 27 28 27 27 27 27 27 28 29 30 30
20 21 21 21 22 23 23 23 23 23 22 22 23 23 23 24 25 25 26 26 27 28 28 29 29 28 27 27 27 27 26 26 26 27 26 26 26 25 25 26 27 28 29
20 21 21 21 22 22 22 23 22 22 22 23 23 23 24 24 24 25 25 26 27 28 27 26 26 26 26 25 24 24 24 24 24 24 24 24 24 24 24 25 25 26 27
19 20 20 21 21 21 21 22 22 22 22 23 23 23 23 23 24 25 26 26 26 26 25 24 24 24 24 23 23 23 22 23 23 23 23 23 23 23 23 24 25 25 25
19 19 19 20 20 21 21 21 21 21 22 23 22 21 21 22 23 23 22 23 23 22 21 22 23 23 22 22 22 22 22 22 22 23 23 23 24 24 24 24 24 25 25
18 19 19 20 20 21 21 21 20 19 20 21 21 21 21 21 21 21 21 21 20 21 21 21 22 21 21 21 21 22 22 22 22 23 23 23 23 23 23 23 24 24 24
18 18 18 19 19 20 20 20 19 18 19 19 20 20 19 20 20 20 19 19 20 20 20 21 21 21 21 20 21 21 21 22 22 22 22 22 23 22 22 22 23 23 22
17 17 17 18 18 18 18 17 17 18 19 19 19 18 18 19 19 18 19 19 19 20 20 20 20 19 19 19 20 20 21 21 21 21 21 21 22 21 21 21 21 21 21
17 17 17 16 16 16 16 16 16 17 17 17 17 17 18 18 18 18 19 19 19 19 19 19 18 18 18 19 19 19 19 19 19 19 19 19 20 19 19 19 19 20 20
16 16 15 15 15 15 15 15 15 15 15 15 16 16 17 17 17 18 18 18 18 18 18 18 18 18 18 19 19 19 19 19 18 18 18 18 18 17 17 17 17 18 18
14 14 14 14 13 13 13 14 14 13 13 14 15 16 16 16 16 16 17 17 17 17 17 17 17 17 18 18 19 19 18 18 17 16 15 15 15 14 15 15 16 16 17
13 13 13 12 12 12 12 13 13 12 13 13 14 14 14 15 15 16 16 17 17 17 17 16 17 17 17 17 18 18 17 16 15 14 14 14 14 13 13 14 14 14 15
12 12 11 11 12 12 11 11 11 12 12 13 13 13 13 14 15 15 15 16 16 16 16 15 16 16 17 17 17 16 15 15 14 13 13 13 12 12 12 12 12 12 13
10 10 10 10 10 10 10 10 11 11 12 11 12 12 12 13 14 14 14 14 15 15 15 15 15 15 15 15 15 14 14 14 14 13 13 13 13 12 11 11 10 11 11
8 7 7 7 7 8 9 10 10 11 11 11 11 11 11 12 12 13 13 13 14 14 14 15 15 15 14 14 13 13 13 13 13 13 13 13 12 11 10 9 9 9 10
6 5 6 6 6 8 9 9 9 9 10 10 10 10 11 11 12 13 13 13 13 14 14 14 15 14 14 14 13 13 13 14 14 13 13 11 10 10 9 8 8 8 8
5 5 5 5 6 7 7 8 8 9 9 9 9 9 10 11 11 12 12 13 13 14 14 14 15 14 14 13 13 13 14 14 13 13 12 10 10 9 8 8 8 8 8
5 5 5 5 5 5 6 7 7 8 8 8 8 9 9 10 11 12 12 13 13 14 14 14 15 14 14 13 13 14 14 14 13 12 11 10 9 9 8 8 7 7 7
4 4 4 4 4 4 4 5 6 7 7 7 8 8 9 10 11 11 12 12 13 13 13 14 14 13 13 13 13 13 13 13 13 12 11 10 10 9 8 8 7 7 6
4 3 3 2 3 4 4 5 6 7 7 7 7 8 8 9 10 11 12 12 13 13 13 14 13 13 13 12 13 13 12 13 12 12 11 11 10 10 9 8 8 7 7
3 2 2 2 3 3 4 5 5 6 6 7 8 8 9 9 9 10 11 13 13 14 14 14 13 13 12 12 12 12 12 12 12 12 12 11 10 10 10 9 9 9 8
Wind_Direction
274 275 274 276 281 283 283 283 285 286 287 287 288 288 288 287 287 288 287 285 286 286 287 286 286 287 288 287 287 285 284 282 281 279 276 273 271 271 269 269 268 265 263
273 274 277 280 284 283 282 281 283 285 288 290 290 289 287 288 287 287 287 288 287 286 287 288 287 288 289 288 286 285 283 282 282 280 277 275 273 271 269 268 267 265 263
271 272 277 281 284 285 283 282 284 286 288 290 291 290 289 290 288 286 285 286 286 287 288 288 289 289 288 287 286 284 282 282 282 280 278 276 274 271 268 267 266 264 263
275 275 276 281 285 288 286 285 285 287 288 289 288 289 291 292 290 286 284 286 287 288 289 289 289 290 290 289 285 284 282 281 281 281 280 278 275 272 268 267 266 264 262
276 277 276 281 285 287 285 285 285 287 288 288 288 289 290 291 291 288 288 287 287 288 291 291 291 291 291 290 287 285 283 282 281 281 280 278 275 272 269 269 269 267 265
275 276 278 280 285 285 286 287 286 286 286 286 287 290 292 292 292 291 290 290 291 291 292 292 293 293 292 291 289 287 285 283 282 282 280 279 277 274 270 269 269 268 267
276 278 278 280 283 284 286 288 289 288 287 287 288 293 294 294 293 292 292 293 293 293 293 293 294 294 294 292 291 288 287 285 284 282 280 279 278 275 273 271 269 268 267
278 279 278 280 283 285 288 289 291 291 292 293 293 294 294 293 292 292 293 294 294 294 294 295 295 295 295 295 294 292 290 287 285 283 281 280 279 277 275 272 270 269 267
276 278 279 280 283 286 289 290 290 290 294 295 295 296 295 295 294 293 294 295 297 296 296 297 299 298 296 296 296 296 295 291 289 287 285 281 278 278 277 274 271 268 267
273 275 278 280 283 286 288 290 291 291 294 296 296 298 298 298 298 298 298 300 301 301 300 301 302 301 299 298 297 296 295 293 291 288 285 282 280 277 274 272 270 268 267
274 275 277 280 281 283 285 288 288 291 293 296 299 302 301 302 302 302 303 304 305 304 302 303 304 303 302 300 299 297 295 294 293 290 287 284 283 279 274 273 271 268 267
277 279 280 282 284 287 288 288 290 293 295 296 299 302 302 304 305 304 304 306 309 310 308 307 307 305 302 302 300 300 299 297 295 292 289 285 283 280 277 275 271 270 267
278 280 283 285 288 291 293 292 294 296 296 297 299 303 306 307 307 307 308 308 310 312 310 310 310 307 306 306 305 304 303 301 299 297 293 289 287 283 278 275 272 270 268
280 281 282 286 289 292 293 294 298 299 299 299 302 306 309 310 310 311 313 312 311 313 314 313 314 312 311 311 310 308 307 305 303 301 297 293 290 285 280 277 274 271 269
281 281 282 285 290 292 292 294 298 299 301 302 304 306 308 311 313 315 317 315 314 316 318 318 317 315 313 313 313 310 309 308 306 303 300 297 292 287 283 279 276 272 270
278 279 280 283 288 292 292 293 298 301 303 305 306 307 310 314 316 318 320 320 319 320 321 321 319 318 318 317 315 313 312 311 308 306 303 299 297 294 287 281 278 274 271
276 273 277 282 289 294 296 296 302 305 306 308 309 312 313 317 320 322 323 324 323 322 323 324 324 322 321 322 321 319 316 316 313 308 306 304 301 296 288 284 281 277 274
274 276 279 283 287 293 295 297 301 305 308 311 314 315 316 320 324 325 327 328 327 328 330 329 329 327 326 326 325 325 323 321 322 320 316 313 309 304 295 291 285 280 277
272 272 275 280 285 290 295 299 303 310 311 315 318 320 322 323 327 331 334 335 334 333 334 335 335 334 334 333 332 332 332 330 328 325 321 318 313 307 300 295 290 284 282
269 269 273 277 283 290 297 304 308 312 314 316 320 322 325 327 331 336 336 338 341 341 341 341 341 341 341 341 340 340 339 337 334 330 326 321 316 312 305 298 292 289 284
275 274 275 280 286 293 299 305 309 312 314 316 319 323 326 330 334 337 340 342 343 344 344 345 344 345 346 346 347 347 345 341 337 333 330 327 321 316 314 308 299 293 290
278 279 282 289 294 300 304 306 310 313 316 317 320 325 328 331 333 340 343 344 344 344 344 345 346 345 344 345 346 347 347 346 343 340 337 333 330 325 323 320 311 300 294
276 279 290 296 300 305 309 313 318 322 322 321 324 327 329 331 334 338 342 342 341 342 344 345 346 347 347 347 346 346 348 349 350 350 348 346 345 342 336 330 323 312 303
274 278 283 296 305 311 318 329 333 335 335 335 335 333 333 336 337 340 343 344 345 345 346 348 349 349 350 351 352 353 355 357 359 1 1 357 353 351 349 345 340 329 318
271 271 274 294 315 322 330 337 341 342 345 351 351 347 345 344 344 346 350 349 349 348 347 347 349 352 353 353 356 357 358 360 2 3 2 358 352 350 348 345 339 330 320
265 265 268 292 318 329 336 340 345 347 353 355 354 354 355 354 351 349 350 351 350 348 347 347 348 351 353 354 356 356 358 0 0 360 358 356 354 352 349 343 338 334 326
Height
5860 5859 5858 5857 5856 5855 5853 5852 5851 5850 5848 5846 5845 5843 5842 5840 5838 5836 5834 5832 5830 5828 5826 5824 5822 5819 5817 5814 5812 5810 5807 5806 5804 5803 5802 5802 5801 5801 5800 5801 5801 5801 5801
5856 5855 5854 5853 5852 5850 5849 5847 5845 5844 5843 5841 5839 5838 5836 5833 5832 5829 5827 5826 5824 5822 5819 5817 5815 5812 5810 5807 5805 5803 5801 5799 5798 5796 5795 5794 5794 5793 5793 5793 5793 5793 5794
5852 5851 5850 5849 5848 5846 5844 5842 5841 5839 5837 5836 5834 5832 5830 5828 5825 5823 5821 5819 5817 5815 5813 5810 5808 5805 5802 5800 5797 5796 5794 5792 5791 5789 5788 5787 5786 5786 5785 5785 5785 5785 5786
5847 5846 5846 5844 5843 5841 5839 5837 5836 5834 5832 5830 5829 5827 5824 5822 5819 5817 5815 5813 5810 5808 5805 5803 5800 5797 5794 5792 5790 5788 5786 5785 5783 5782 5780 5779 5778 5778 5778 5777 5777 5777 5778
5842 5841 5841 5840 5838 5836 5834 5832 5831 5829 5827 5825 5823 5821 5818 5816 5813 5811 5809 5807 5804 5801 5798 5795 5793 5790 5787 5784 5782 5780 5778 5777 5775 5774 5773 5771 5770 5770 5770 5770 5770 5770 5770
5837 5837 5836 5834 5833 5831 5829 5827 5825 5823 5822 5819 5818 5815 5813 5810 5807 5805 5802 5800 5797 5794 5791 5788 5785 5782 5779 5776 5774 5772 5771 5769 5768 5766 5765 5764 5763 5762 5761 5762 5762 5762 5762
5832 5832 5831 5830 5828 5825 5824 5822 5820 5818 5816 5814 5812 5809 5807 5804 5802 5799 5796 5793 5790 5787 5784 5781 5778 5775 5772 5770 5767 5765 5764 5762 5760 5759 5758 5756 5756 5755 5754 5754 5754 5754 5754
5828 5827 5826 5824 5823 5821 5819 5817 5815 5813 5811 5809 5806 5804 5801 5798 5796 5793 5790 5787 5784 5781 5777 5774 5771 5769 5766 5763 5761 5759 5757 5755 5753 5752 5751 5750 5749 5748 5747 5747 5747 5747 5747
5823 5822 5820 5819 5817 5815 5814 5812 5810 5808 5806 5804 5801 5798 5796 5793 5790 5786 5784 5781 5777 5774 5771 5768 5765 5762 5760 5757 5755 5753 5751 5749 5747 5746 5744 5743 5742 5742 5741 5740 5740 5740 5740
5818 5816 5815 5814 5812 5811 5809 5807 5805 5803 5801 5798 5796 5793 5790 5787 5784 5781 5778 5775 5772 5768 5765 5763 5760 5757 5754 5752 5749 5747 5745 5743 5741 5739 5738 5737 5736 5735 5734 5733 5733 5733 5733
5812 5811 5810 5809 5808 5806 5804 5802 5800 5798 5796 5794 5791 5788 5785 5782 5779 5776 5773 5770 5767 5764 5760 5757 5754 5751 5749 5746 5744 5742 5739 5737 5735 5733 5731 5730 5729 5728 5727 5727 5726 5726 5726
5807 5806 5805 5804 5802 5801 5799 5797 5795 5793 5791 5789 5786 5783 5780 5777 5774 5771 5768 5765 5762 5759 5756 5752 5749 5746 5744 5741 5739 5736 5734 5731 5729 5727 5725 5723 5722 5721 5720 5720 5719 5719 5719
5802 5801 5800 5799 5797 5796 5794 5792 5791 5789 5787 5784 5781 5778 5776 5773 5769 5766 5763 5761 5758 5755 5751 5748 5745 5742 5739 5736 5734 5731 5728 5725 5723 5721 5719 5717 5716 5714 5714 5713 5713 5713 5713
5797 5797 5796 5794 5793 5791 5790 5788 5786 5784 5782 5780 5777 5774 5772 5769 5766 5763 5760 5757 5754 5751 5747 5744 5741 5738 5735 5732 5729 5726 5723 5720 5718 5715 5713 5711 5710 5708 5707 5707 5707 5706 5707
5792 5792 5791 5790 5789 5787 5786 5784 5783 5780 5778 5776 5773 5771 5768 5765 5762 5759 5756 5753 5750 5746 5743 5740 5737 5734 5731 5728 5725 5721 5719 5716 5713 5711 5708 5706 5705 5703 5702 5702 5701 5701 5701
5788 5787 5787 5786 5784 5783 5782 5781 5779 5777 5774 5772 5770 5767 5765 5762 5759 5756 5752 5749 5746 5743 5740 5737 5733 5730 5727 5724 5721 5718 5715 5712 5709 5706 5704 5702 5700 5699 5697 5697 5696 5696 5696
5784 5783 5783 5782 5781 5780 5779 5777 5775 5773 5771 5769 5767 5764 5761 5758 5755 5752 5749 5746 5743 5740 5737 5734 5730 5727 5724 5721 5718 5714 5711 5708 5705 5702 5700 5698 5696 5694 5693 5692 5692 5691 5691
5779 5779 5778 5778 5777 5776 5775 5774 5772 5770 5768 5766 5764 5761 5758 5756 5753 5750 5747 5744 5741 5738 5734 5731 5728 5724 5721 5718 5715 5711 5708 5705 5702 5699 5697 5694 5692 5691 5689 5688 5688 5687 5687
5775 5775 5775 5774 5773 5773 5772 5771 5769 5768 5766 5763 5761 5758 5756 5754 5751 5748 5745 5742 5739 5736 5732 5729 5726 5722 5719 5715 5712 5709 5706 5703 5700 5697 5694 5692 5690 5688 5686 5685 5684 5684 5683
5771 5771 5771 5771 5770 5770 5769 5768 5767 5765 5763 5761 5758 5756 5754 5752 5749 5746 5743 5741 5737 5734 5731 5728 5724 5720 5717 5714 5710 5707 5704 5701 5698 5695 5692 5689 5687 5685 5684 5682 5681 5680 5680
5769 5769 5769 5768 5768 5767 5767 5766 5764 5763 5761 5759 5757 5755 5753 5750 5748 5745 5742 5739 5736 5733 5730 5726 5723 5719 5716 5712 5709 5706 5703 5700 5696 5693 5690 5687 5685 5683 5681 5680 5679 5678 5677
5767 5767 5766 5766 5766 5765 5764 5763 5762 5760 5759 5757 5755 5753 5751 5749 5746 5744 5741 5738 5735 5732 5729 5725 5722 5718 5715 5712 5709 5705 5702 5699 5695 5692 5689 5686 5684 5682 5680 5679 5677 5676 5675
5765 5765 5765 5764 5764 5763 5763 5762 5760 5759 5757 5755 5754 5752 5750 5747 5745 5742 5740 5737 5734 5731 5728 5724 5721 5717 5714 5711 5708 5705 5701 5698 5694 5691 5688 5686 5683 5681 5679 5677 5676 5675 5674
5763 5763 5763 5762 5762 5762 5761 5760 5759 5757 5756 5754 5752 5750 5748 5746 5744 5741 5739 5736 5733 5730 5727 5724 5720 5717 5714 5710 5707 5704 5701 5697 5694 5691 5688 5686 5683 5681 5679 5677 5675 5674 5673
5762 5762 5762 5761 5761 5760 5760 5759 5758 5756 5755 5753 5751 5749 5747 5745 5743 5741 5738 5735 5732 5729 5726 5723 5720 5717 5714 5710 5707 5704 5701 5698 5695 5692 5689 5686 5684 5681 5679 5677 5675 5673 5672
5761 5761 5760 5760 5760 5759 5759 5758 5757 5755 5754 5752 5751 5749 5747 5745 5742 5740 5737 5734 5732 5729 5725 5722 5719 5716 5713 5710 5707 5704 5701 5698 5695 5692 5689 5686 5684 5681 5679 5676 5674 5673 5671